Location: Newark
(57.2833°N, 52.7500°E)
Time: 14:29:30
(UTC+00:00)

Envisat - Visible Passes

Search period start: 22 October 2019 00:00
Search period end: 01 November 2019 00:00
Orbit: 764 x 766 km, 98.1° (Epoch: 22 October)

Date Brightness Start Highest point End Pass type
(mag) Time Alt. Az. Time Alt. Az. Time Alt. Az.
22 Oct 6.7 01:40:33 10° ENE 01:41:29 10° ENE 01:42:24 10° E visible
22 Oct 3.7 14:39:48 10° S 14:44:49 57° W 14:49:52 10° NNW visible
22 Oct 6.2 16:23:07 10° WSW 16:25:00 12° W 16:26:52 10° WNW visible
23 Oct 3.0 14:02:53 10° SSE 14:07:58 81° ENE 14:13:06 10° NNW visible
23 Oct 5.5 15:43:45 10° SW 15:47:38 22° W 15:51:32 10° NW visible
24 Oct 6.1 02:04:16 10° NE 02:07:27 16° E 02:10:36 10° ESE visible
24 Oct 4.5 15:05:45 10° SSW 15:10:28 38° W 15:15:14 10° NNW visible
25 Oct 3.4 14:28:27 10° S 14:33:31 68° WSW 14:38:36 10° NNW visible
25 Oct 6.0 16:10:49 10° WSW 16:13:32 14° W 16:16:15 10° NW visible
26 Oct 5.7 02:29:09 10° NE 02:33:18 24° E 02:37:26 10° SE visible
26 Oct 3.0 13:51:40 10° SSE 13:56:43 69° ENE 14:01:48 10° NNW visible
26 Oct 5.3 15:32:02 10° SW 15:36:14 25° W 15:40:27 10° NW visible
27 Oct 6.2 01:53:27 10° NE 01:56:00 14° E 01:58:32 10° ESE visible
27 Oct 4.2 14:54:16 10° S 14:59:08 45° W 15:04:02 10° NNW visible
28 Oct 3.1 14:17:07 10° SSE 14:22:13 81° WSW 14:27:21 10° NNW visible
28 Oct 5.8 15:58:47 10° SW 16:02:05 17° W 16:05:23 10° NW visible
29 Oct 5.9 02:18:05 10° NE 02:21:54 21° E 02:25:41 10° SE visible
29 Oct 3.1 13:40:30 10° SE 13:45:29 59° ENE 13:50:30 10° N visible
29 Oct 5.0 15:20:24 10° SSW 15:24:51 30° W 15:29:20 10° NNW visible
30 Oct 6.4 01:42:57 10° ENE 01:44:32 11° E 01:46:06 10° E visible
30 Oct 3.8 14:42:50 10° S 14:47:48 54° W 14:52:49 10° NNW visible
30 Oct 6.2 16:26:39 10° W 16:28:02 11° W 16:29:25 10° WNW visible
31 Oct 5.2 02:43:11 10° NNE 02:47:43 31° E 02:52:11 10° SSE visible
31 Oct 3.0 14:05:51 10° SSE 14:10:56 86° ENE 14:16:04 10° NNW visible
31 Oct 5.6 15:46:55 10° SW 15:50:39 20° W 15:54:25 10° NW visible
